Theta_e
349 353 361 360 360 361 360 359 359 360 360 361 361 361 360 359 357 355 354 353 351 348 345 345 345 343 343 341 342 343 344 346
346 350 362 359 360 361 361 360 358 358 358 359 359 359 358 356 355 354 353 352 351 350 348 346 346 347 346 344 344 344 345 345
344 350 359 361 360 360 360 360 358 358 357 357 357 357 357 356 354 353 352 352 351 351 351 349 348 348 348 346 344 345 345 345
344 348 356 360 362 360 360 359 358 358 357 357 356 356 356 355 354 352 352 352 351 351 351 350 349 349 348 346 345 345 345 345
343 345 352 356 357 359 359 360 359 358 358 357 357 357 356 356 354 352 351 351 352 351 351 350 350 349 348 347 346 345 345 346
339 343 348 348 351 354 352 357 358 358 358 358 358 357 354 349 351 349 347 350 352 352 351 351 350 349 348 345 345 345 345 339
335 339 343 347 349 350 346 354 357 356 356 355 353 355 352 349 351 347 349 351 351 351 351 351 351 349 345 338 341 343 340 338
335 337 342 349 352 350 347 348 351 350 352 353 355 356 356 350 352 350 348 350 347 348 342 345 344 343 340 339 338 338 338 339
336 336 339 347 352 354 349 348 350 347 350 350 353 359 356 353 353 350 345 345 347 343 344 342 340 343 342 342 340 338 338 337
334 339 339 343 350 353 353 347 349 350 348 351 351 357 355 352 350 349 347 344 343 342 340 340 340 340 342 342 340 339 338 338
335 335 339 343 350 350 352 353 349 350 349 349 349 350 355 352 351 347 347 344 341 340 339 338 338 340 341 340 340 342 341 341
327 332 336 342 347 352 349 349 350 346 346 344 345 350 352 354 351 350 343 341 339 341 344 343 342 342 341 340 342 342 343 344
324 328 333 337 343 350 353 350 346 343 343 342 344 346 349 350 350 348 340 340 340 342 341 340 340 340 340 341 343 344 345 345
323 325 326 332 340 347 351 349 349 351 345 342 342 341 346 346 345 345 339 341 345 338 340 341 342 343 341 344 344 345 346 345
326 331 328 328 338 349 349 350 346 343 343 342 340 341 345 345 344 345 341 345 343 340 341 342 347 344 345 345 345 344 345 345
323 326 330 330 337 340 344 340 343 343 346 343 343 345 345 345 344 348 340 344 345 342 339 344 345 345 346 347 344 343 343 346
322 324 325 328 331 333 336 349 348 348 346 347 346 347 347 344 348 348 348 346 347 340 346 346 348 345 346 348 341 340 336 340
319 321 322 326 328 331 333 335 342 344 346 345 348 347 348 346 348 351 350 348 347 345 344 348 350 349 342 346 347 341 335 330
317 319 322 325 328 328 331 333 340 336 338 340 345 348 351 349 347 348 353 348 350 346 352 351 351 352 349 344 344 343 348 343
Wind_Speed
20 21 22 23 20 16 14 14 14 16 16 17 17 17 16 16 15 14 13 11 12 12 12 12 11 9 9 9 8 8 7 5
20 20 22 23 22 19 15 14 14 15 15 16 16 16 16 16 15 14 13 12 11 11 11 11 10 9 10 10 9 7 5 5
18 19 21 22 22 19 16 14 13 13 14 15 15 15 15 15 14 14 14 12 12 11 11 11 10 9 8 8 8 7 6 6
16 16 18 21 20 18 17 15 13 11 11 12 13 13 11 11 11 12 12 12 11 10 11 11 10 9 8 8 8 7 7 7
14 15 16 18 19 18 17 14 13 12 11 10 10 10 10 9 9 10 9 9 10 10 10 10 10 9 8 8 8 8 8 8
12 14 15 18 18 17 18 15 12 13 12 10 10 8 9 10 12 13 11 9 9 9 10 9 9 9 9 9 9 9 9 8
13 15 14 15 17 17 14 15 16 14 13 13 13 13 11 11 9 10 9 8 10 10 9 9 10 10 9 9 9 11 9 10
15 12 14 12 13 16 14 11 9 10 10 11 15 13 12 9 8 8 6 7 8 11 8 11 10 9 12 9 7 6 8 8
7 15 14 13 12 13 10 11 11 11 11 10 12 14 9 8 8 7 7 7 7 7 9 8 7 9 10 10 10 10 9 8
2 8 15 16 15 13 13 10 10 10 11 11 10 12 11 10 9 8 6 6 6 6 6 6 7 6 8 10 10 11 11 10
5 2 6 14 15 16 14 13 10 9 10 10 10 11 14 10 8 8 7 7 6 6 6 5 5 6 8 9 10 11 11 10
2 3 7 9 13 15 16 14 10 10 10 11 10 10 10 11 9 8 7 6 6 5 6 7 7 7 8 9 11 9 10 10
7 7 5 8 8 12 12 10 11 11 10 10 9 9 12 13 12 10 8 8 7 7 7 8 8 6 6 9 9 8 8 8
6 4 5 6 7 10 10 8 10 11 10 12 11 9 11 14 15 12 10 9 9 6 8 9 6 4 7 8 9 9 8 8
6 5 6 3 4 7 7 7 6 8 10 12 13 12 14 13 17 14 11 10 11 9 9 5 4 6 7 8 8 9 8 8
6 7 9 10 7 4 6 4 3 10 8 10 12 16 16 15 17 15 12 12 13 13 13 14 13 10 8 7 8 9 9 11
8 6 6 8 12 11 6 3 2 5 7 9 11 15 16 18 17 16 14 13 14 10 10 10 7 8 7 8 8 8 8 9
8 10 7 6 6 6 9 6 5 6 5 11 9 13 14 19 18 19 17 13 12 10 10 10 10 12 10 9 14 8 6 7
9 9 9 7 6 6 4 7 9 9 10 13 14 13 12 18 20 18 16 16 13 13 9 9 9 11 11 11 9 11 12 8
Wind_Direction
173 171 151 167 167 176 178 175 171 167 166 165 166 166 164 163 158 162 166 173 173 172 170 167 166 165 158 157 149 155 162 176
178 173 160 171 168 172 182 182 179 175 173 171 170 170 168 168 165 166 169 178 177 174 176 176 172 178 171 170 164 171 182 204
177 174 166 174 170 171 181 183 190 184 179 179 175 175 177 174 170 171 172 179 183 186 178 180 182 186 186 179 177 176 200 245
174 180 172 179 176 172 177 182 184 194 193 184 181 176 182 178 175 179 176 184 191 190 191 184 185 191 198 193 192 197 206 229
182 187 180 184 182 185 183 179 184 188 195 195 187 180 174 175 183 186 180 193 194 198 203 195 190 193 207 205 212 214 229 236
192 194 191 186 186 190 188 181 180 190 192 191 189 177 171 202 189 187 197 173 202 208 212 208 199 201 209 216 229 228 242 246
198 199 197 195 188 193 193 187 199 200 206 205 203 195 214 213 208 214 184 167 194 206 220 219 212 208 218 236 202 214 240 256
197 207 208 199 195 202 198 192 189 203 205 206 211 209 205 210 210 210 200 192 210 198 220 206 213 228 231 242 246 241 238 248
207 207 205 203 206 208 203 198 198 201 202 207 206 207 213 210 208 220 211 203 200 212 215 233 230 240 242 250 262 264 251 258
164 214 210 201 204 207 220 206 214 207 204 210 208 201 210 210 209 206 212 221 221 220 223 236 250 261 253 253 255 252 256 254
318 176 231 215 208 204 206 214 208 217 217 212 217 213 209 221 206 207 204 211 229 233 243 236 250 265 242 250 240 249 255 254
78 72 299 228 222 209 212 214 214 215 215 218 219 219 207 217 211 223 211 212 222 229 247 239 227 234 261 266 258 255 249 243
43 30 329 304 206 214 219 208 224 219 221 231 212 218 205 202 216 199 207 210 207 210 225 234 224 215 248 246 259 258 242 248
16 9 67 335 277 212 205 226 230 242 223 233 217 209 208 201 202 210 206 205 201 223 226 231 237 221 244 251 264 253 250 250
6 11 3 30 226 253 186 181 237 229 236 237 229 227 214 209 203 199 208 200 204 195 201 240 231 228 236 262 267 255 255 247
6 350 2 340 331 290 234 165 219 248 222 246 242 226 214 210 208 199 206 200 205 206 205 186 185 194 227 232 262 248 248 238
339 359 340 342 346 336 319 175 147 285 265 253 238 229 212 206 206 207 210 206 209 212 191 192 187 223 213 220 235 242 262 212
342 342 346 346 324 307 314 327 296 295 289 269 233 231 217 212 204 212 204 209 206 224 187 200 200 213 221 215 218 234 231 239
337 334 328 331 324 276 266 255 248 250 237 231 240 228 219 211 213 213 203 204 208 214 205 194 203 217 221 228 206 231 257 284